KE7YUP Weather Reports


time (UTC)temp
C
wind
direction
speed
KPH
gust
KPH
rain 1hr
cm
rain 24hr
cm
rain mn
cm
humidity
%
barometer
mb
20260831172216 22 100 14.5 20.9 0.00 0.00 0.00 51 1022.5
20260831171216 22 139 11.3 19.3 0.00 0.00 0.00 51 1022.5
20260831170216 22 113 11.3 17.7 0.00 0.00 0.00 53 1022.2
20260831165216 22 128 4.8 9.7 0.00 0.00 0.00 54 1022.3
20260831164216 22 93 4.8 12.9 0.00 0.00 0.00 55 1022.1
20260831163216 22 112 6.4 11.3 0.00 0.00 0.00 56 1022.4
20260831162216 22 123 4.8 11.3 0.00 0.00 0.00 56 1022.3
20260831161216 21 135 4.8 8.0 0.00 0.00 0.00 56 1021.9
20260831160216 22 134 1.6 6.4 0.00 0.00 0.00 55 1022.2
20260831155216 22 140 4.8 6.4 0.00 0.00 0.00 54 1022.0
20260831154236 21 245 3.2 4.8 0.00 0.00 0.00 55 1021.7
20260831153216 21 139 1.6 4.8 0.00 0.00 0.00 57 1021.8
20260831152216 21 182 3.2 9.7 0.00 0.00 0.00 56 1021.9
20260831151216 21 98 1.6 3.2 0.00 0.00 0.00 57 1021.9
20260831150236 21 105 0.0 3.2 0.00 0.00 0.00 59 1022.4
20260831145216 20 135 1.6 4.8 0.00 0.00 0.00 63 1022.3
20260831144236 20 107 1.6 4.8 0.00 0.00 0.00 65 1022.2
20260831143216 18 144 0.0 3.2 0.00 0.00 0.00 66 1021.8
20260831142216 18 56 0.0 1.6 0.00 0.00 0.00 68 1021.8
20260831141216 17 0.0 0.0 0.00 0.00 0.00 70 1021.5
20260831140216 16 0.0 1.6 0.00 0.00 0.00 75 1021.9
20260831135256 15 56 1.6 3.2 0.00 0.00 0.00 77 1021.3
20260831134216 15 56 3.2 4.8 0.00 0.00 0.00 77 1021.3
20260831133216 15 56 3.2 4.8 0.00 0.00 0.00 75 1021.6
20260831132215 16 56 0.0 3.2 0.00 0.03 0.00 73 1021.4
20260831131216 16 56 4.8 4.8 0.00 0.03 0.00 70 1021.6
20260831130216 17 56 1.6 3.2 0.00 0.03 0.00 70 1021.7
20260831125215 16 56 3.2 4.8 0.00 0.03 0.00 70 1021.5
20260831124216 16 55 4.8 6.4 0.00 0.03 0.00 70 1021.5
20260831123235 16 65 4.8 6.4 0.00 0.03 0.00 69 1021.8
20260831122215 16 82 3.2 4.8 0.00 0.03 0.00 71 1021.8
20260831121215 16 0 6.4 8.0 0.00 0.03 0.00 69 1021.7
20260831120215 16 313 4.8 6.4 0.00 0.03 0.00 69 1021.9
20260831115216 16 256 3.2 4.8 0.00 0.03 0.00 68 1021.9
20260831114215 16 310 6.4 11.3 0.00 0.03 0.00 68 1022.1
20260831113216 16 330 1.6 6.4 0.00 0.03 0.00 70 1021.7
20260831112215 16 344 8.0 12.9 0.00 0.03 0.00 71 1021.7
20260831111215 15 344 4.8 6.4 0.00 0.03 0.00 72 1021.6
20260831110215 15 344 1.6 4.8 0.00 0.03 0.00 72 1021.3
20260831105215 15 0.0 0.0 0.00 0.03 0.00 71 1021.3
20260831104215 15 344 3.2 6.4 0.00 0.03 0.00 71 1021.1
20260831103215 16 344 3.2 4.8 0.00 0.03 0.00 69 1020.7
20260831102215 16 344 0.0 1.6 0.00 0.03 0.00 70 1020.7
20260831101215 15 344 0.0 3.2 0.00 0.03 0.00 72 1020.6
20260831100215 16 344 0.0 1.6 0.00 0.03 0.00 71 1020.8
20260831095215 16 0.0 1.6 0.00 0.03 0.00 71 1020.7
20260831094215 15 344 3.2 6.4 0.00 0.03 0.00 73 1020.5
20260831093216 16 344 3.2 4.8 0.00 0.03 0.00 72 1021.0
20260831092215 16 344 1.6 3.2 0.00 0.03 0.00 73 1020.9
20260831091235 16 344 0.0 3.2 0.00 0.03 0.00 72 1020.9
20260831090235 16 0.0 0.0 0.00 0.05 0.00 72 1020.5
20260831085215 16 344 3.2 3.2 0.00 0.05 0.00 71 1020.5
20260831084215 16 344 3.2 4.8 0.00 0.05 0.00 70 1020.9
20260831083215 17 344 0.0 1.6 0.00 0.05 0.00 69 1021.0
20260831082215 17 344 0.0 3.2 0.00 0.05 0.00 66 1021.0
20260831081215 17 344 6.4 9.7 0.00 0.05 0.00 67 1021.0
20260831080215 17 344 6.4 8.0 0.00 0.05 0.00 69 1021.2
20260831075215 17 344 6.4 9.7 0.00 0.05 0.00 70 1021.2
20260831074215 17 20 4.8 6.4 0.00 0.05 0.00 66 1021.2
20260831073215 18 0.0 1.6 0.00 0.05 0.00 67 1021.4
20260831072215 17 317 11.3 16.1 0.00 0.05 0.00 69 1021.1
20260831071217 16 355 6.4 8.0 0.00 0.05 0.00 73 1021.1
20260831070237 16 355 3.2 4.8 0.00 0.08 0.00 72 1021.0
20260831065217 17 355 3.2 4.8 0.00 0.08 0.00 72 1021.1
20260831064217 17 355 6.4 8.0 0.00 0.08 0.00 71 1020.9
20260831063217 17 355 1.6 3.2 0.00 0.08 0.00 69 1020.8
20260831062217 17 355 3.2 4.8 0.00 0.08 0.00 67 1020.9
20260831061217 18 355 4.8 8.0 0.00 0.08 0.00 67 1021.1
20260831060217 17 355 4.8 6.4 0.00 0.08 0.00 69 1020.7
20260831055216 17 355 4.8 8.0 0.00 0.08 0.08 70 1020.9
20260831054256 17 355 6.4 6.4 0.00 0.08 0.08 69 1021.0
20260831053216 17 355 4.8 4.8 0.00 0.08 0.08 67 1020.8
20260831052216 18 355 3.2 4.8 0.00 0.08 0.08 68 1020.8
20260831051216 18 355 3.2 6.4 0.00 0.08 0.08 67 1020.9
20260831050215 18 348 1.6 4.8 0.00 0.10 0.08 67 1020.6
20260831045216 18 348 3.2 3.2 0.00 0.15 0.08 64 1020.8
20260831044236 18 348 1.6 3.2 0.00 0.18 0.08 64 1020.4
20260831043215 18 348 1.6 3.2 0.00 0.23 0.08 63 1020.3
20260831042215 18 348 3.2 3.2 0.00 0.25 0.08 62 1020.1
20260831041215 18 348 1.6 3.2 0.00 0.25 0.08 63 1020.1
20260831040216 18 348 3.2 4.8 0.00 0.25 0.08 61 1019.9
20260831035216 18 348 3.2 4.8 0.00 0.25 0.08 61 1019.9
20260831034216 18 348 3.2 4.8 0.00 0.25 0.08 62 1019.7
20260831033215 18 49 3.2 4.8 0.00 0.28 0.08 63 1019.8
20260831032216 18 49 1.6 3.2 0.00 0.33 0.08 64 1019.9
20260831031215 19 49 3.2 4.8 0.00 0.33 0.08 63 1020.3
20260831030215 19 49 3.2 4.8 0.00 0.33 0.08 63 1019.6
20260831025216 20 49 1.6 1.6 0.00 0.33 0.08 62 1019.9
20260831024215 20 49 3.2 6.4 0.00 0.33 0.08 61 1019.7
20260831023235 20 31 3.2 4.8 0.00 0.33 0.08 61 1019.3
20260831022336 20 42 6.4 8.0 0.00 0.33 0.08 64 1019.2
20260831021215 20 55 3.2 6.4 0.00 0.33 0.08 66 1019.3
20260831020215 20 15 1.6 4.8 0.00 0.33 0.08 66 1019.2
20260831015215 21 40 8.0 11.3 0.00 0.33 0.08 63 1019.5
20260831014215 21 42 9.7 14.5 0.00 0.33 0.08 60 1019.4
20260831013236 22 58 11.3 16.1 0.00 0.33 0.08 53 1019.5
20260831012215 23 48 17.7 22.5 0.00 0.33 0.08 51 1019.7
20260831011215 23 39 12.9 19.3 0.00 0.41 0.08 51 1019.8
20260831010215 23 41 16.1 20.9 0.00 0.64 0.08 51 1019.9
20260831005215 23 41 16.1 22.5 0.00 0.64 0.08 50 1020.0
20260831004215 24 38 11.3 16.1 0.00 0.64 0.08 50 1020.2
20260831003217 23 14 12.9 19.3 0.00 0.64 0.08 49 1020.3
20260831002215 24 14 14.5 17.7 0.00 0.64 0.08 47 1020.6
20260831001215 25 10 16.1 20.9 0.00 0.64 0.08 46 1020.8
20260831000215 25 342 8.0 17.7 0.00 0.64 0.08 46 1020.7
20260830235215 25 11 8.0 20.9 0.00 0.64 0.08 49 1020.2
20260830234215 24 34 9.7 17.7 0.00 0.64 0.08 49 1020.2
20260830233215 23 44 9.7 17.7 0.00 0.64 0.08 50 1020.4
20260830232215 23 54 16.1 20.9 0.00 0.64 0.08 50 1020.7
20260830231215 23 62 12.9 19.3 0.00 0.64 0.08 50 1020.7
20260830230215 24 72 6.4 11.3 0.00 0.64 0.08 38 1020.4
20260830225215 23 69 9.7 12.9 0.00 0.64 0.08 34 1020.3
20260830224235 23 65 3.2 6.4 0.00 0.64 0.08 36 1020.2
20260830223215 23 84 3.2 8.0 0.00 0.64 0.08 39 1019.8
20260830222215 23 104 4.8 9.7 0.00 0.64 0.08 44 1020.2
20260830221215 22 70 8.0 11.3 0.00 0.64 0.08 48 1020.1
20260830220217 22 86 8.0 11.3 0.00 0.64 0.08 55 1019.8
20260830215215 22 65 8.0 12.9 0.00 0.64 0.08 57 1020.2
20260830214217 23 80 6.4 14.5 0.00 0.64 0.08 52 1020.2
20260830213215 23 115 4.8 14.5 0.00 0.64 0.08 51 1020.5
20260830212237 23 97 8.0 16.1 0.00 0.64 0.08 55 1020.7
20260830211216 23 99 12.9 19.3 0.00 0.64 0.08 57 1020.9
20260830210217 23 112 9.7 14.5 0.00 0.64 0.08 60 1021.2
20260830205216 23 101 11.3 17.7 0.00 0.64 0.08 62 1021.3
20260830204216 23 87 11.3 17.7 0.00 0.64 0.08 61 1021.1
20260830203237 23 79 8.0 16.1 0.00 0.64 0.08 63 1021.3
20260830202217 22 119 9.7 20.9 0.00 0.64 0.08 64 1021.3
20260830201216 23 94 12.9 17.7 0.00 0.64 0.08 61 1021.4
20260830200216 22 91 9.7 14.5 0.00 0.64 0.08 61 1021.3
20260830195216 22 101 9.7 14.5 0.00 0.64 0.08 62 1021.5
20260830194216 22 109 11.3 17.7 0.00 0.64 0.08 63 1021.5
20260830193217 22 112 11.3 14.5 0.00 0.64 0.08 66 1021.6
20260830192217 22 84 14.5 16.1 0.00 0.64 0.08 65 1021.8
20260830191216 22 88 11.3 16.1 0.00 0.64 0.08 65 1022.1
20260830190216 22 104 8.0 12.9 0.00 0.64 0.08 65 1022.2
20260830185216 21 98 11.3 16.1 0.00 0.64 0.08 65 1021.9
20260830184217 22 117 8.0 17.7 0.00 0.64 0.08 65 1022.1
20260830183216 22 91 8.0 12.9 0.00 0.64 0.08 65 1022.3
20260830182217 21 122 9.7 14.5 0.00 0.64 0.08 65 1022.0
20260830181236 21 111 9.7 16.1 0.00 0.64 0.08 66 1022.1
20260830180216 21 152 9.7 14.5 0.00 0.64 0.08 67 1022.1
20260830175236 21 114 11.3 12.9 0.00 0.64 0.08 68 1022.1
20260830174216 21 155 1.6 4.8 0.00 0.64 0.08 68 1022.1
20260830173236 21 154 4.8 8.0 0.00 0.64 0.08 67 1022.0